• Join FlightAware (Why Join?)
  • Login
  • US Flag GB Flag 
12:08 EDT


 

Airport Tracker/Info


-or-


 

Live Flight TrackerFlight Track Log ✈ N85JE ✈ 03-Feb-2014 ✈ KAPF - KBED

Flight Track Log - Related Links

Times and Time Zones

All times are in EST time to prevent confusion due to time zone crossing. See the N85JE flight status page for this flight to view local times or setup timezone preferences in your user account.

Time Position Orientation Groundspeed Altitude Reporting Facility
EST Latitude Longitude Course Direction KTS MPH feet Rate Location/Type
12:48 26.8487 -81.7478 North  Level FlightAware Approximate
12:48 26.5326 -81.9043 North 298 343 18,900  Level FlightAware ADS-B (KMCO)
12:49 26.5907 -81.8855 16° North 303 349 21,000 2,400 Climbing FlightAware ADS-B (KMCO)
12:50 26.6562 -81.8643 16° North 304 350 22,700 1,320 Climbing FlightAware ADS-B (KMCO)
12:51 26.7157 -81.8451 16° North 349 402 23,000 180 Climbing FlightAware ADS-B (KMCO)
12:51 26.7775 -81.8251 16° North 376 433 23,000 60 Level FlightAware ADS-B (KMCO)
12:52 26.8291 -81.8077 17° North 382 440 23,100  Climbing FlightAware ADS-B (KMCO)
12:53 26.9014 -81.7843 16° North 393 452 23,000 360 Descending FlightAware ADS-B (KMCO)
12:53 26.9716 -81.7616 16° North 388 447 23,600 1,800 Climbing FlightAware ADS-B (KMCO)
12:54 27.0387 -81.7519 North 359 413 25,400 2,700 Climbing FlightAware ADS-B (KMCO)
12:54 27.0687 -81.7603 346° North 345 397 26,300 2,460 Climbing FlightAware ADS-B (KMCO)
12:55 27.1306 -81.7822 342° North 341 392 27,900 1,980 Climbing FlightAware ADS-B (KMCO)
12:56 27.1926 -81.8033 343° North 352 405 29,000 1,860 Climbing FlightAware ADS-B (KMCO)
12:56 27.2552 -81.8248 343° North 351 404 30,400 2,100 Climbing FlightAware ADS-B (KMCO)
12:57 27.3176 -81.8463 343° North 346 398 31,900 1,980 Climbing FlightAware ADS-B (KMCO)
12:58 27.3785 -81.8675 343° North 348 400 33,100 1,920 Climbing FlightAware ADS-B (KMCO)
12:58 27.4480 -81.8865 346° North 357 411 34,600 1,620 Climbing FlightAware ADS-B (KMCO)
12:59 27.4875 -81.8846 North 372 428 35,000 540 Climbing FlightAware ADS-B (KMCO)
12:59 27.5231 -81.8736 15° North 400 460 35,000  Level FlightAware ADS-B (KMCO)
13:00 27.5939 -81.8362 25° Northeast 433 498 35,000  Level FlightAware ADS-B (KMCO)
13:00 27.6725 -81.7955 25° Northeast 454 522 35,000 240 Level FlightAware ADS-B (KMCO)
13:01 27.7508 -81.7549 25° Northeast 457 526 35,400 600 Climbing FlightAware ADS-B (KMCO)
13:02 27.8642 -81.7339 North 443 510 36,000 360 Climbing FlightAware ADS-B (KMCO)
13:03 27.9460 -81.7266 North 454 522 36,000 480 Level FlightAware ADS-B (KMCO)
13:03 28.0182 -81.7199 North 445 512 36,600 1,620 Climbing FlightAware ADS-B (KMCO)
13:04 28.0991 -81.7124 North 421 484 38,000 2,100 Climbing FlightAware ADS-B (KMCO)
13:05 28.1725 -81.7058 North 399 459 39,400 1,980 Climbing FlightAware ADS-B (KMCO)
13:05 28.2458 -81.6992 North 378 435 40,700 1,260 Climbing FlightAware ADS-B (KMCO)
13:06 28.3049 -81.6942 North 385 443 41,000 240 Climbing FlightAware ADS-B (KMCO)
13:06 28.3793 -81.6879 North 401 461 41,000  Level FlightAware ADS-B (KMCO)
13:07 28.4548 -81.6813 North 415 478 41,000  Level FlightAware ADS-B (KMCO)
13:08 28.5338 -81.6742 North 426 490 41,000  Level FlightAware ADS-B (KMCO)
13:09 28.6188 -81.6665 North 435 501 41,000  Level FlightAware ADS-B (KMCO)
13:09 28.6909 -81.6601 North 442 509 41,000  Level FlightAware ADS-B (KMCO)
13:10 28.7745 -81.6525 North 443 510 41,000 60 Level FlightAware ADS-B (KMCO)
13:10 28.8387 -81.6467 North 442 509 41,100 1,020 Climbing FlightAware ADS-B (KSFB)
13:11 28.9219 -81.6389 North 416 479 42,300 1,680 Climbing FlightAware ADS-B (KMCO)
13:12 28.9835 -81.6333 North 400 460 43,200 1,560 Climbing FlightAware ADS-B (KMCO)
13:12 29.0560 -81.6267 North 381 438 44,200 1,140 Climbing FlightAware ADS-B (KMCO)
13:13 29.1271 -81.6204 North 375 432 44,800 540 Climbing FlightAware ADS-B (KMCO)
13:14 29.1969 -81.6143 North 379 436 45,000 120 Climbing FlightAware ADS-B (KMCO)
13:14 29.2678 -81.6080 North 388 447 45,000  Level FlightAware ADS-B (KMCO)
13:15 29.3373 -81.6017 North 397 457 45,000  Level FlightAware ADS-B (KMCO)
13:16 29.4148 -81.5947 North 405 466 45,000  Level FlightAware ADS-B (KMCO)
13:16 29.4918 -81.5877 North 409 471 45,000  Level FlightAware ADS-B (KMCO)
13:17 29.5659 -81.5809 North 411 473 45,000  Level FlightAware ADS-B (KMCO)
13:18 29.6378 -81.5744 North 413 475 45,000  Level FlightAware ADS-B (KMCO)
13:18 29.7009 -81.5686 North 415 478 45,000  Level FlightAware ADS-B (KMCO)
13:19 29.7910 -81.5604 North 417 480 45,000  Level FlightAware ADS-B (KMCO)
13:20 29.8723 -81.5529 North 418 481 45,000  Level FlightAware ADS-B (KMCO)
13:20 29.9349 -81.5471 North 420 483 45,000  Level FlightAware ADS-B (KMCO)
13:21 30.0297 -81.5384 North 421 484 45,000  Level FlightAware ADS-B (KMCO)
13:22 30.1111 -81.5311 North 409 471 45,000  Level Jacksonville Center
13:23 30.2278 -81.5197 North 414 476 45,000  Level Jacksonville Center
13:24 30.3489 -81.5086 North 420 483 45,000  Level Jacksonville Center
13:25 30.4678 -81.4994 North 425 489 45,000  Level Jacksonville Center
13:26 30.5867 -81.4881 North 425 489 45,000  Level Jacksonville Center
13:27 30.6972 -81.4817 North 425 489 45,000  Level Jacksonville Center
13:28 30.8161 -81.4728 North 425 489 45,000  Level Jacksonville Center
13:29 30.9350 -81.4636 North 425 489 45,000  Level Jacksonville Center
13:30 31.0539 -81.4544 North 425 489 45,000  Level Jacksonville Center
13:31 31.1750 -81.4456 North 425 489 45,000  Level Jacksonville Center
13:32 31.2892 -81.3975 20° North 425 489 45,000  Level Jacksonville Center
13:33 31.4050 -81.2983 36° Northeast 435 501 45,000  Level Jacksonville Center
13:34 31.5125 -81.2136 34° Northeast 459 528 45,000  Level Jacksonville Center
13:35 31.6053 -81.1314 37° Northeast 464 534 45,000  Level Jacksonville Center
13:36 31.7228 -81.0339 35° Northeast 469 540 45,000  Level Jacksonville Center
13:37 31.8300 -80.9436 36° Northeast 469 540 45,000  Level Jacksonville Center
13:38 31.9289 -80.8608 35° Northeast 474 545 45,000  Level Jacksonville Center
13:39 32.0464 -80.7650 35° Northeast 469 540 45,000  Level Jacksonville Center
13:40 32.1533 -80.6719 36° Northeast 469 540 45,000  Level Jacksonville Center
13:41 32.2603 -80.5783 37° Northeast 474 545 45,000  Level Jacksonville Center
13:42 32.3692 -80.4894 35° Northeast 474 545 45,000  Level Jacksonville Center
13:43 32.4761 -80.3981 36° Northeast 474 545 45,000  Level Jacksonville Center
13:44 32.5828 -80.3064 36° Northeast 474 545 45,000  Level Jacksonville Center
13:45 32.6894 -80.2144 36° Northeast 474 545 45,000  Level Jacksonville Center
13:46 32.7958 -80.1222 36° Northeast 474 545 45,000  Level Jacksonville Center
13:47 32.9022 -80.0250 37° Northeast 474 545 45,000  Level Jacksonville Center
13:48 33.0028 -79.9525 31° Northeast 474 545 45,000  Level Jacksonville Center
13:49 33.1158 -79.8744 30° Northeast 474 545 45,000  Level Jacksonville Center
13:50 33.2267 -79.7936 31° Northeast 462 532 45,000  Level Jacksonville Center
13:51 33.3372 -79.7153 31° Northeast 462 532 45,000  Level Jacksonville Center
13:52 33.4458 -79.6342 32° Northeast 462 532 45,000  Level Jacksonville Center
13:53 33.5564 -79.5528 32° Northeast 462 532 45,000  Level Jacksonville Center
13:54 33.6647 -79.4714 32° Northeast 462 532 45,000  Level Jacksonville Center
13:55 33.7814 -79.3869 31° Northeast 457 526 45,000  Level Jacksonville Center
13:56 33.8878 -79.3100 31° Northeast 457 526 45,000  Level Jacksonville Center
13:57 34.0003 -79.2278 31° Northeast 457 526 45,000  Level Jacksonville Center
13:58 34.1125 -79.1456 31° Northeast 462 532 45,000  Level Jacksonville Center
14:02 34.5723 -78.7927 31° Northeast 470 541 45,000  Level FlightAware ADS-B
14:04 34.8392 -78.5893 32° Northeast 474 545 45,000  Level FlightAware ADS-B
14:05 34.9240 -78.5242 32° Northeast 473 544 45,000  Level FlightAware ADS-B
14:06 34.9982 -78.4672 32° Northeast 473 544 45,000  Level FlightAware ADS-B
14:06 35.0752 -78.4079 32° Northeast 473 544 45,000  Level FlightAware ADS-B
14:07 35.1434 -78.3554 32° Northeast 472 543 45,000  Level FlightAware ADS-B
14:08 35.2191 -78.2968 32° Northeast 473 544 45,000  Level FlightAware ADS-B
14:08 35.2979 -78.2357 32° Northeast 472 543 45,000  Level FlightAware ADS-B
14:09 35.3660 -78.1829 32° Northeast 473 544 45,000  Level FlightAware ADS-B
14:10 35.4452 -78.1212 32° Northeast 473 544 45,000  Level FlightAware ADS-B
14:10 35.5208 -78.0622 32° Northeast 475 547 45,000  Level FlightAware ADS-B
14:11 35.5824 -78.0140 32° Northeast 475 547 45,000  Level FlightAware ADS-B
14:12 35.6629 -77.9510 32° Northeast 477 549 45,000  Level FlightAware ADS-B
14:13 35.7567 -77.8803 32° Northeast 478 550 45,000  Level Washington Center
14:14 35.8667 -77.7911 33° Northeast 478 550 45,000  Level Washington Center
14:15 35.9789 -77.7044 32° Northeast 478 550 45,000  Level Washington Center
14:16 36.0892 -77.6044 36° Northeast 478 550 45,000  Level Washington Center
14:17 36.1950 -77.5044 37° Northeast 483 556 45,000  Level Washington Center
14:18 36.3136 -77.3939 37° Northeast 477 549 45,000  Level Washington Center
14:19 36.4194 -77.2931 37° Northeast 477 549 45,000  Level Washington Center
14:20 36.5250 -77.1919 38° Northeast 477 549 45,000  Level Washington Center
14:21 36.6308 -77.0906 38° Northeast 477 549 45,000  Level Washington Center
14:22 36.7383 -76.9889 37° Northeast 483 556 45,000  Level Washington Center
14:23 36.8481 -76.8897 36° Northeast 483 556 45,000  Level Washington Center
14:28 37.5054 -76.2942 36° Northeast 486 559 45,000  Level FlightAware ADS-B (KWWD)
14:30 37.6225 -76.1864 36° Northeast 486 559 45,000  Level FlightAware ADS-B (KWWD)
14:30 37.7157 -76.1000 36° Northeast 486 559 45,000  Level FlightAware ADS-B (KWWD)
14:31 37.7724 -76.0475 36° Northeast 486 559 45,000  Level FlightAware ADS-B (KWWD)
14:31 37.8023 -76.0197 36° Northeast 493 567 45,000  Level FlightAware ADS-B (KSBY)
14:32 37.9193 -75.9107 36° Northeast 488 562 45,000  Level FlightAware ADS-B (KWWD)
14:33 37.9916 -75.8431 36° Northeast 488 562 45,000  Level FlightAware ADS-B (KWWD)
14:33 38.0583 -75.7806 36° Northeast 489 563 45,000  Level FlightAware ADS-B (KWWD)
14:34 38.1374 -75.7064 36° Northeast 497 572 45,000  Level FlightAware ADS-B (KWWD)
14:35 38.2102 -75.6379 36° Northeast 497 572 45,000  Level FlightAware ADS-B (KWWD)
14:36 38.2670 -75.5844 37° Northeast 489 563 45,000  Level FlightAware ADS-B (KSBY)
14:36 38.3544 -75.5093 34° Northeast 470 541 45,000  Level FlightAware ADS-B (KSBY)
14:37 38.4123 -75.4827 20° North 465 535 45,000  Level FlightAware ADS-B
14:37 38.5031 -75.4454 18° North 467 537 45,000  Level FlightAware ADS-B (KSBY)
14:38 38.5709 -75.4171 18° North 460 529 45,000  Level FlightAware ADS-B (KWWD)
14:39 38.6485 -75.3846 18° North 466 536 45,000  Level FlightAware ADS-B (KSBY)
14:39 38.7439 -75.3449 18° North 467 537 45,000  Level FlightAware ADS-B (KSBY)
14:40 38.8103 -75.3116 21° North 482 555 45,000  Level FlightAware ADS-B (KSBY)
14:40 38.8377 -75.2902 31° Northeast 491 565 45,000  Level FlightAware ADS-B
14:41 38.9023 -75.2363 33° Northeast 481 554 45,000  Level FlightAware ADS-B (KWWD)
14:41 38.9419 -75.2039 32° Northeast 488 562 45,000  Level FlightAware ADS-B (KSBY)
14:42 39.0540 -75.1119 32° Northeast 488 562 45,000  Level FlightAware ADS-B (KPVU)
14:43 39.1065 -75.0685 33° Northeast 489 563 45,000  Level FlightAware ADS-B (KSBY)
14:43 39.2105 -74.9824 33° Northeast 482 555 45,000  Level FlightAware ADS-B (KWWD)
14:44 39.2791 -74.9253 33° Northeast 482 555 45,000  Level FlightAware ADS-B (KWWD)
14:44 39.3145 -74.8959 33° Northeast 482 555 45,000  Level FlightAware ADS-B (KWWD)
14:45 39.3697 -74.8498 33° Northeast 488 562 45,000 -180 Level FlightAware ADS-B
14:45 39.4405 -74.7908 33° Northeast 487 560 44,800 -540 Descending FlightAware ADS-B (KPVU)
14:46 39.5129 -74.7300 33° Northeast 487 560 44,300 -780 Descending FlightAware ADS-B (KPVU)
14:46 39.5587 -74.6915 33° Northeast 479 551 44,000 -1,140 Descending FlightAware ADS-B (KWWD)
14:47 39.5880 -74.6668 33° Northeast 486 559 43,600 -1,200 Descending FlightAware ADS-B (KPVU)
14:47 39.6725 -74.5957 33° Northeast 482 555 42,800 -1,680 Descending FlightAware ADS-B (KWWD)
14:48 39.7529 -74.5282 33° Northeast 504 580 41,300 -1,860 Descending FlightAware ADS-B (KWWD)
14:49 39.8105 -74.4793 33° Northeast 515 593 40,600 -1,440 Descending FlightAware ADS-B (KPVU)
14:49 39.8708 -74.4278 33° Northeast 515 593 39,900 -1,320 Descending FlightAware ADS-B (KWWD)
14:50 39.9411 -74.3524 39° Northeast 518 596 39,100 -1,140 Descending FlightAware ADS-B (KWWD)
14:50 40.0154 -74.2619 43° Northeast 515 593 38,400 -1,020 Descending FlightAware ADS-B (KWWD)
14:51 40.0803 -74.1834 43° Northeast 509 586 37,800 -1,080 Descending FlightAware ADS-B (KPVU)
14:51 40.1166 -74.1392 43° Northeast 489 563 37,400 -1,980 Descending FlightAware ADS-B (KWWD)
14:52 40.1872 -74.0528 43° Northeast 484 557 35,700 -2,400 Descending FlightAware ADS-B (KWWD)
14:53 40.2491 -73.9771 43° Northeast 469 540 34,200 -2,400 Descending FlightAware ADS-B (KWWD)
14:53 40.3121 -73.8997 43° Northeast 467 537 32,600 -2,460 Descending FlightAware ADS-B (KWWD)
14:54 40.3598 -73.8409 43° Northeast 466 536 31,100 -2,340 Descending FlightAware ADS-B (KSNC)
14:54 40.3841 -73.8111 43° Northeast 465 535 30,700 -2,580 Descending FlightAware ADS-B (KWWD)
14:55 40.4359 -73.7474 43° Northeast 483 556 29,300 -2,700 Descending FlightAware ADS-B (KPVU)
14:55 40.4957 -73.6735 43° Northeast 509 586 27,700 -2,640 Descending FlightAware ADS-B (KSNC)
14:56 40.5617 -73.5914 43° Northeast 516 594 26,100 -2,640 Descending FlightAware ADS-B (KWWD)
14:57 40.6284 -73.5081 43° Northeast 504 580 24,400 -2,760 Descending FlightAware ADS-B (KSNC)
14:57 40.6896 -73.4314 44° Northeast 483 556 22,600 -2,640 Descending FlightAware ADS-B (KPVU)
14:58 40.7328 -73.3773 44° Northeast 461 531 21,400 -1,140 Descending FlightAware ADS-B (KSNC)
14:59 40.8315 -73.2642 41° Northeast 462 532 21,000 -300 Descending FlightAware ADS-B (KSNC)
14:59 40.8984 -73.2075 33° Northeast 465 535 21,000  Level FlightAware ADS-B (KSNC)
15:00 40.9666 -73.1483 33° Northeast 465 535 21,000  Level FlightAware ADS-B (KSNC)
15:01 41.0330 -73.0901 33° Northeast 467 537 21,000 -300 Level FlightAware ADS-B (KSNC)
15:01 41.0979 -73.0325 34° Northeast 450 518 20,700 -840 Descending FlightAware ADS-B (KSNC)
15:02 41.1657 -72.9723 34° Northeast 432 497 20,000 -1,200 Descending FlightAware ADS-B (KSNC)
15:02 41.2162 -72.9275 34° Northeast 415 478 19,300 -1,260 Descending FlightAware ADS-B (KSNC)
15:03 41.2798 -72.8708 34° Northeast 395 455 18,500 -1,500 Descending FlightAware ADS-B (KSNC)
15:04 41.3362 -72.8206 34° Northeast 386 444 17,300 -1,680 Descending FlightAware ADS-B (KSNC)
15:05 41.4153 -72.7500 34° Northeast 375 432 16,000 -1,560 Descending FlightAware ADS-B (KSNC)
15:05 41.4728 -72.6985 34° Northeast 370 426 15,000 -960 Descending FlightAware ADS-B (KSNC)
15:06 41.5277 -72.6494 34° Northeast 366 421 14,800 -180 Descending FlightAware ADS-B (KSNC)
15:07 41.5839 -72.5989 34° Northeast 368 423 14,800  Level FlightAware ADS-B (KSNC)
15:07 41.6317 -72.5558 34° Northeast 370 426 14,800 -480 Level FlightAware ADS-B (KSNC)
15:07 41.6573 -72.5245 42° Northeast 377 434 14,400 -1,020 Descending FlightAware ADS-B (KSNC)
15:08 41.7034 -72.4542 49° Northeast 375 432 13,800 -1,020 Descending FlightAware ADS-B (KSNC)
15:09 41.7412 -72.3980 48° Northeast 371 427 13,200 -1,080 Descending FlightAware ADS-B (KSNC)
15:10 41.8100 -72.2953 48° Northeast 363 418 12,200 -960 Descending FlightAware ADS-B (KSNC)
15:11 41.8726 -72.2013 48° Northeast 380 437 11,100 -720 Descending FlightAware ADS-B (KSNC)
15:12 41.9678 -72.0578 48° Northeast 373 429 10,500 -660 Descending Boston Center
15:12 41.9881 -72.0269 48° Northeast 359 413 10,200 -840 Descending Boston Center
15:13 42.0439 -71.9725 36° Northeast 329 379 9,700 -720 Descending Boston Center
15:13 42.0653 -71.9614 21° North 301 346 9,500 -1,500 Descending Boston Center
15:14 42.1211 -71.9303 22° Northeast 299 344 8,200 -1,920 Descending Boston Center
15:14 42.1494 -71.9156 21° North 295 339 7,400 -1,800 Descending Boston Center
15:15 42.1942 -71.8919 21° North 291 335 6,400 -900 Descending Boston Center
15:21 42.4851 -71.5465 21° North 162 186 1,800 -780 Descending FlightAware ADS-B
15:21 42.4911 -71.5246 69° East 166 191 1,800  Level FlightAware ADS-B
15:22 42.4887 -71.4833 95° East 168 193 1,800  Level FlightAware ADS-B
15:22 42.4871 -71.4610 96° East 167 192 1,800 60 Level FlightAware ADS-B
15:23 42.4833 -71.4167 96° East 161 185 1,900 -300 Climbing KA90
15:24 42.4833 -71.3667 90° East 103 119 1,300 -660 Descending KA90
15:25 42.4833 -71.3333 90° East 112 129 600 -720 Descending KA90
15:28 42.4667 -71.2833 62° Northeast  Level FlightAware Approximate